Tracking 29790 objects as of 12-Oct-2024
HD Live streaming from Space Station
objects crossing your sky now

BREEZE-M DEB

Track BREEZE-M DEB now!
10-day predictions


NORAD ID: 37198
Int'l Code: 2008-011C
Perigee: 445.2 km
Apogee: 26,346.5 km
Inclination: 49.3 °
Period: 461.0 minutes
Semi major axis: 19766 km
RCS: 4.9345 m2 (large)
Launch date: March 14, 2008
Source: Commonwealth of Independent States (former USSR) (CIS)
Launch site: TYURATAM MISSILE AND SPACE COMPLEX (TTMTR)

Note: This is SATELLITE DEBRIS
Your satellite tracking list
Your tracking list is empty




NASA's NSSDC Master Catalog

Two Line Element Set (TLE):
1 37198U 08011C   24285.47287512  .00000090  00000-0  31607-3 0  9994
2 37198  49.2753  48.0228 6551719 186.7046 156.0878  3.12390355159090
Source of the keplerian elements: AFSPC